CHH867 ZBAD-UUEE

Flight info

Callsign CHH867
Flight time N/A
Altitude 36100
Route IDKEX6K IDKEX B339 ASILA A575 SND Y655 AROGU A575 MUBUR/K0865S1160 A575 DARNO/K0859F380 A575 ODIDA B926 GISMA M864 RURAK/K0889F400 M864 AGNOK/K0802F280 M864 KERUN P164 IDMOR DCT GG020 DCT DIMGI DIMGI3F
Aircraft A333/H-SDE3GHIJ2J3J5M1RVWXY/LB2D1

Departure

Time 2026-05-01 09:19
Airport Beijing Daxing International Airport (ZBAD)

Arrival

Time N/A
Airport Sheremetyevo International Airport (UUEE)
Time Latitude Longitude Altitude Speed Heading
2026-05-01 08:55 39.50661 116.41273 95 ft 0 kts 258°
2026-05-01 09:08 39.50662 116.41280 95 ft 2 kts 258°
2026-05-01 09:09 39.50665 116.41299 95 ft 2 kts 258°
2026-05-01 09:09 39.50668 116.41318 95 ft 2 kts 258°
2026-05-01 09:09 39.50671 116.41338 95 ft 2 kts 258°
2026-05-01 09:09 39.50674 116.41357 95 ft 2 kts 258°
2026-05-01 09:10 39.50677 116.41374 95 ft 1 kts 228°
2026-05-01 09:10 39.50690 116.41381 95 ft 2 kts 159°
2026-05-01 09:10 39.50702 116.41370 95 ft 2 kts 136°
2026-05-01 09:10 39.50711 116.41360 95 ft 0 kts 142°
2026-05-01 09:11 39.50713 116.41358 95 ft 0 kts 143°
2026-05-01 09:12 39.50712 116.41358 95 ft 0 kts 143°
2026-05-01 09:12 39.50699 116.41372 95 ft 4 kts 142°
2026-05-01 09:13 39.50648 116.41421 95 ft 13 kts 143°
2026-05-01 09:13 39.50550 116.41525 95 ft 19 kts 120°
2026-05-01 09:13 39.50567 116.41616 95 ft 7 kts 65°
2026-05-01 09:13 39.50587 116.41736 95 ft 20 kts 83°
2026-05-01 09:14 39.50679 116.41872 95 ft 23 kts 21°
2026-05-01 09:14 39.50805 116.41969 95 ft 17 kts 66°
2026-05-01 09:14 39.50825 116.42133 95 ft 19 kts 81°
2026-05-01 09:14 39.50907 116.42202 95 ft 19 kts 359°
2026-05-01 09:15 39.51106 116.42172 95 ft 37 kts 353°
2026-05-01 09:15 39.51319 116.42178 95 ft 22 kts 55°
2026-05-01 09:15 39.51342 116.42365 95 ft 30 kts 83°
2026-05-01 09:15 39.51373 116.42703 95 ft 40 kts 84°
2026-05-01 09:16 39.51398 116.42962 95 ft 18 kts 83°
2026-05-01 09:16 39.51481 116.43083 95 ft 26 kts 12°
2026-05-01 09:16 39.51550 116.43103 95 ft 0 kts 13°
2026-05-01 09:17 39.51630 116.43127 95 ft 18 kts 16°
2026-05-01 09:17 39.51653 116.43196 95 ft 0 kts 92°
2026-05-01 09:17 39.51608 116.43474 95 ft 48 kts 103°
2026-05-01 09:18 39.51474 116.44217 95 ft 121 kts 102°
2026-05-01 09:18 39.50922 116.47254 562 ft 204 kts 104°
2026-05-01 09:19 39.49749 116.50907 2245 ft 229 kts 129°
2026-05-01 09:19 39.48653 116.52154 3508 ft 204 kts 144°
2026-05-01 09:19 39.47687 116.53431 4420 ft 209 kts 124°
2026-05-01 09:20 39.47442 116.57518 5472 ft 265 kts 66°
2026-05-01 09:20 39.50484 116.60312 6805 ft 298 kts
2026-05-01 09:21 39.54816 116.60043 8379 ft 301 kts 355°
2026-05-01 09:21 39.56786 116.60018 9070 ft 286 kts 355°
2026-05-01 09:21 39.60698 116.59950 9678 ft 265 kts 355°
2026-05-01 09:22 39.64236 116.59872 10376 ft 255 kts 355°
2026-05-01 09:22 39.67886 116.59774 11165 ft 273 kts 356°
2026-05-01 09:23 39.69829 116.59721 11570 ft 282 kts 355°
2026-05-01 09:23 39.73885 116.59609 12370 ft 300 kts 356°
2026-05-01 09:24 39.78190 116.59489 13163 ft 319 kts 356°
2026-05-01 09:24 39.80411 116.59428 13547 ft 328 kts 356°
2026-05-01 09:24 39.85124 116.59300 14338 ft 347 kts 356°
2026-05-01 09:25 39.90028 116.59162 15117 ft 355 kts 356°
2026-05-01 09:25 39.94933 116.59027 15868 ft 353 kts 355°
2026-05-01 09:26 39.97418 116.58955 16255 ft 354 kts 355°
2026-05-01 09:26 40.02334 116.58817 17021 ft 358 kts 354°
2026-05-01 09:26 40.04853 116.58746 17412 ft 360 kts 354°
2026-05-01 09:27 40.09899 116.58604 18184 ft 364 kts 354°
2026-05-01 09:27 40.12412 116.58530 18557 ft 367 kts 354°
2026-05-01 09:27 40.14974 116.58459 18936 ft 367 kts 354°
2026-05-01 09:28 40.17546 116.58386 19315 ft 368 kts 354°
2026-05-01 09:28 40.20106 116.58312 19688 ft 371 kts 354°
2026-05-01 09:28 40.22692 116.58241 20058 ft 373 kts 354°
2026-05-01 09:28 40.25185 116.58170 20405 ft 373 kts 354°
2026-05-01 09:29 40.30415 116.58021 21156 ft 376 kts 354°
2026-05-01 09:29 40.33047 116.57945 21549 ft 378 kts 354°
2026-05-01 09:30 40.38326 116.57797 22302 ft 382 kts 353°
2026-05-01 09:30 40.40960 116.57720 22686 ft 383 kts 353°
2026-05-01 09:30 40.46332 116.57569 23451 ft 387 kts 353°
2026-05-01 09:31 40.49043 116.57492 23840 ft 390 kts 353°
2026-05-01 09:31 40.51732 116.57416 24225 ft 391 kts 353°
2026-05-01 09:31 40.57196 116.57262 24979 ft 395 kts 352°
2026-05-01 09:32 40.59960 116.57180 25355 ft 396 kts 352°
2026-05-01 09:32 40.65465 116.57024 26117 ft 399 kts 351°
2026-05-01 09:32 40.68234 116.56942 26497 ft 400 kts 351°
2026-05-01 09:33 40.71015 116.56865 26883 ft 400 kts 350°
2026-05-01 09:33 40.73825 116.56782 27251 ft 401 kts 351°
2026-05-01 09:33 40.79422 116.56744 27993 ft 405 kts 353°
2026-05-01 09:34 40.82140 116.56456 28366 ft 395 kts 343°
2026-05-01 09:34 40.84890 116.56085 28768 ft 397 kts 346°
2026-05-01 09:34 40.90421 116.55507 29522 ft 398 kts 346°
2026-05-01 09:35 40.93170 116.55247 29916 ft 399 kts 346°
2026-05-01 09:35 40.98708 116.54726 30701 ft 399 kts 345°
2026-05-01 09:35 41.01475 116.54465 31089 ft 398 kts 345°
2026-05-01 09:36 41.04212 116.54210 31477 ft 398 kts 345°
2026-05-01 09:36 41.07001 116.53952 31885 ft 397 kts 345°
2026-05-01 09:36 41.09752 116.53690 32065 ft 402 kts 345°
2026-05-01 09:37 41.15463 116.53150 32053 ft 420 kts 345°
2026-05-01 09:37 41.21243 116.52610 32047 ft 436 kts 346°
2026-05-01 09:37 41.24215 116.51947 32021 ft 424 kts 332°
2026-05-01 09:38 41.29209 116.48400 32055 ft 404 kts 321°
2026-05-01 09:38 41.31620 116.46507 32045 ft 401 kts 321°
2026-05-01 09:39 41.38772 116.40853 32083 ft 399 kts 321°
2026-05-01 09:39 41.43531 116.37087 32071 ft 399 kts 321°
2026-05-01 09:40 41.50668 116.31423 32078 ft 398 kts 321°
2026-05-01 09:41 41.55410 116.27647 32091 ft 398 kts 321°
2026-05-01 09:41 41.62524 116.21980 32091 ft 398 kts 321°
2026-05-01 09:42 41.67272 116.18185 32089 ft 400 kts 321°
2026-05-01 09:43 41.76777 116.10571 32096 ft 396 kts 321°
2026-05-01 09:43 41.81503 116.06776 32102 ft 397 kts 320°
2026-05-01 09:44 41.88602 116.01058 32103 ft 398 kts 321°
2026-05-01 09:45 41.93352 115.97227 32097 ft 397 kts 320°
2026-05-01 09:45 41.97063 115.92253 32125 ft 374 kts 294°
2026-05-01 09:45 41.98319 115.89150 32113 ft 376 kts 295°
2026-05-01 09:46 42.00830 115.82988 32100 ft 375 kts 295°
2026-05-01 09:46 42.03316 115.76852 32093 ft 375 kts 295°
2026-05-01 09:47 42.05790 115.70743 32087 ft 375 kts 295°
2026-05-01 09:47 42.08283 115.64557 32095 ft 376 kts 294°
2026-05-01 09:48 42.10768 115.58392 32088 ft 375 kts 295°
2026-05-01 09:48 42.13247 115.52219 32099 ft 375 kts 294°
2026-05-01 09:49 42.15733 115.46021 32099 ft 375 kts 295°
2026-05-01 09:49 42.18209 115.39837 32083 ft 375 kts 295°
2026-05-01 09:50 42.20677 115.33658 32107 ft 377 kts 294°
2026-05-01 09:50 42.23170 115.27402 32104 ft 376 kts 294°
2026-05-01 09:51 42.25504 115.21268 32122 ft 375 kts 293°
2026-05-01 09:51 42.27860 115.14994 32102 ft 375 kts 293°
2026-05-01 09:52 42.30212 115.08720 32099 ft 376 kts 293°
2026-05-01 09:52 42.32577 115.02402 32104 ft 376 kts 293°
2026-05-01 09:53 42.34923 114.96118 32088 ft 376 kts 292°
2026-05-01 09:53 42.37276 114.89808 32087 ft 376 kts 292°
2026-05-01 09:54 42.39617 114.83496 32102 ft 378 kts 293°
2026-05-01 09:54 42.41963 114.77177 32085 ft 375 kts 293°
2026-05-01 09:55 42.44307 114.70840 32099 ft 377 kts 293°
2026-05-01 09:55 42.46642 114.64514 32093 ft 376 kts 293°
2026-05-01 09:56 42.48964 114.58211 32102 ft 377 kts 293°
2026-05-01 09:56 42.51294 114.51874 32104 ft 378 kts 293°
2026-05-01 09:57 42.53629 114.45509 32090 ft 377 kts 292°
2026-05-01 09:57 42.55951 114.39162 32100 ft 377 kts 292°
2026-05-01 09:58 42.58274 114.32796 32104 ft 377 kts 292°
2026-05-01 09:58 42.60550 114.26550 32104 ft 378 kts 292°
2026-05-01 09:59 42.62873 114.20168 32113 ft 378 kts 293°
2026-05-01 09:59 42.65329 114.13814 32091 ft 377 kts 294°
2026-05-01 10:00 42.67756 114.07512 32097 ft 379 kts 293°
2026-05-01 10:00 42.70186 114.01190 32087 ft 378 kts 293°
2026-05-01 10:01 42.72608 113.94873 32076 ft 378 kts 293°
2026-05-01 10:01 42.75038 113.88519 32085 ft 381 kts 293°
2026-05-01 10:02 42.77486 113.82107 32081 ft 381 kts 293°
2026-05-01 10:02 42.79908 113.75738 32082 ft 379 kts 293°
2026-05-01 10:03 42.82321 113.69390 32084 ft 379 kts 293°
2026-05-01 10:03 42.84740 113.63010 32087 ft 381 kts 292°
2026-05-01 10:04 42.87163 113.56603 32054 ft 379 kts 293°
2026-05-01 10:04 42.89559 113.50259 32086 ft 380 kts 292°
2026-05-01 10:05 42.91982 113.43817 32085 ft 380 kts 293°
2026-05-01 10:05 42.94384 113.37427 32068 ft 381 kts 293°
2026-05-01 10:06 42.96799 113.30984 32083 ft 380 kts 292°
2026-05-01 10:06 42.99165 113.24656 32088 ft 381 kts 292°
2026-05-01 10:07 43.01583 113.18194 32079 ft 381 kts 293°
2026-05-01 10:07 43.04050 113.11770 32103 ft 383 kts 293°
2026-05-01 10:08 43.07736 113.02121 32102 ft 382 kts 293°
2026-05-01 10:09 43.10166 112.95752 32093 ft 380 kts 293°
2026-05-01 10:09 43.12616 112.89305 32085 ft 381 kts 293°
2026-05-01 10:10 43.14997 112.83028 32099 ft 382 kts 293°
2026-05-01 10:10 43.18662 112.73346 32095 ft 383 kts 292°
2026-05-01 10:11 43.21111 112.66855 32091 ft 381 kts 293°
2026-05-01 10:11 43.23540 112.60406 32086 ft 382 kts 293°
2026-05-01 10:12 43.25551 112.55053 32095 ft 383 kts 293°
2026-05-01 10:13 43.29603 112.44228 32093 ft 382 kts 293°
2026-05-01 10:13 43.32027 112.37745 32083 ft 382 kts 292°
2026-05-01 10:14 43.35649 112.28012 32098 ft 382 kts 292°
2026-05-01 10:14 43.38060 112.21519 32106 ft 382 kts 292°
2026-05-01 10:15 43.40468 112.15041 32091 ft 382 kts 294°
2026-05-01 10:15 43.42113 112.12138 32083 ft 396 kts 310°
2026-05-01 10:15 43.44435 112.09960 32129 ft 408 kts 321°
2026-05-01 10:16 43.49307 112.05930 32084 ft 409 kts 320°
2026-05-01 10:17 43.56517 111.99859 32094 ft 407 kts 320°
2026-05-01 10:17 43.63775 111.93744 32107 ft 407 kts 320°
2026-05-01 10:18 43.68572 111.89368 32096 ft 409 kts 309°
2026-05-01 10:18 43.70551 111.86591 32124 ft 412 kts 308°
2026-05-01 10:19 43.74636 111.80848 32110 ft 423 kts 307°
2026-05-01 10:19 43.78783 111.75005 32105 ft 430 kts 308°
2026-05-01 10:20 43.85119 111.66052 32127 ft 436 kts 308°
2026-05-01 10:20 43.89373 111.60027 32097 ft 439 kts 308°
2026-05-01 10:21 43.95742 111.50983 32096 ft 440 kts 308°
2026-05-01 10:22 44.02140 111.41861 32100 ft 439 kts 308°
2026-05-01 10:23 44.08503 111.32762 32119 ft 436 kts 307°
2026-05-01 10:23 44.14846 111.23663 32118 ft 435 kts 307°
2026-05-01 10:24 44.23174 111.11670 32126 ft 435 kts 307°
2026-05-01 10:25 44.31596 110.99487 32132 ft 438 kts 307°
2026-05-01 10:26 44.35818 110.93358 32114 ft 438 kts 307°
2026-05-01 10:27 44.44315 110.80988 32121 ft 440 kts 307°
2026-05-01 10:28 44.50643 110.71736 32116 ft 440 kts 307°
2026-05-01 10:28 44.56964 110.62467 32111 ft 439 kts 307°
2026-05-01 10:29 44.63301 110.53138 32120 ft 439 kts 307°
2026-05-01 10:30 44.71751 110.40656 32116 ft 441 kts 306°